Time,TemperatureF,DewpointF,PressureIn,WindDirection,WindDirectionDegrees,WindSpeedMPH,WindSpeedGustMPH,Humidity,HourlyPrecipIn,Conditions,Clouds,dailyrainin,SoftwareType,DateUTC
2013-02-23 00:03:00,68.0,66.0,29.91,North,360,0.0,0.0,92,0.00,,,0.04,,2013-02-23 05:03:00,
2013-02-23 00:12:00,68.0,66.0,29.91,North,360,0.0,0.0,92,0.00,,,0.04,,2013-02-23 05:12:00,
2013-02-23 00:22:00,68.0,66.0,29.90,North,360,0.0,0.0,92,0.00,,,0.04,,2013-02-23 05:22:00,
2013-02-23 00:33:00,68.0,66.0,29.89,North,360,0.0,0.0,93,0.00,,,0.04,,2013-02-23 05:33:00,
2013-02-23 00:42:00,68.0,66.0,29.89,North,360,0.0,0.0,93,0.00,,,0.04,,2013-02-23 05:42:00,
2013-02-23 00:52:00,68.0,66.0,29.89,North,360,0.0,0.0,93,0.00,,,0.04,,2013-02-23 05:52:00,
2013-02-23 01:01:00,68.0,66.0,29.89,North,360,0.0,0.0,93,0.00,,,0.04,,2013-02-23 06:01:00,
2013-02-23 01:11:00,68.0,66.0,29.89,North,360,0.0,0.0,93,0.00,,,0.04,,2013-02-23 06:11:00,
2013-02-23 01:22:00,68.0,66.0,29.88,North,360,0.0,0.0,94,0.00,,,0.04,,2013-02-23 06:22:00,
2013-02-23 01:32:00,68.0,66.0,29.88,South,182,1.0,1.0,94,0.00,,,0.04,,2013-02-23 06:32:00,
2013-02-23 01:42:00,68.0,66.0,29.88,South,182,1.0,1.0,94,0.00,,,0.04,,2013-02-23 06:42:00,
2013-02-23 01:52:00,68.0,67.0,29.88,North,360,0.0,0.0,95,0.00,,,0.04,,2013-02-23 06:52:00,
2013-02-23 02:01:00,68.0,67.0,29.88,North,360,0.0,0.0,95,0.00,,,0.04,,2013-02-23 07:01:00,
2013-02-23 02:11:00,68.0,67.0,29.88,South,182,2.0,2.0,95,0.00,,,0.04,,2013-02-23 07:11:00,
2013-02-23 02:21:00,68.0,67.0,29.88,South,182,2.0,2.0,95,0.00,,,0.04,,2013-02-23 07:21:00,
2013-02-23 02:32:00,68.0,67.0,29.87,SSE,167,1.0,1.0,96,0.00,,,0.04,,2013-02-23 07:32:00,
2013-02-23 02:42:00,68.0,67.0,29.87,SSE,167,1.0,1.0,96,0.00,,,0.04,,2013-02-23 07:42:00,
2013-02-23 02:52:00,68.0,67.0,29.86,South,179,2.0,2.0,96,0.00,,,0.04,,2013-02-23 07:52:00,
2013-02-23 03:01:00,68.0,67.0,29.86,North,360,0.0,0.0,96,0.00,,,0.04,,2013-02-23 08:01:00,
2013-02-23 03:11:00,68.0,67.0,29.86,North,360,0.0,0.0,96,0.00,,,0.04,,2013-02-23 08:11:00,
2013-02-23 03:21:00,68.0,67.0,29.86,North,360,0.0,0.0,96,0.00,,,0.04,,2013-02-23 08:21:00,
2013-02-23 03:31:00,68.0,67.0,29.86,South,180,1.0,1.0,96,0.00,,,0.04,,2013-02-23 08:31:00,
2013-02-23 03:42:00,68.0,67.0,29.86,South,180,1.0,1.0,96,0.00,,,0.04,,2013-02-23 08:42:00,
2013-02-23 03:53:00,68.0,67.0,29.86,South,181,2.0,2.0,96,0.00,,,0.04,,2013-02-23 08:53:00,
2013-02-23 04:02:00,68.0,67.0,29.86,South,170,1.0,1.0,97,0.00,,,0.04,,2013-02-23 09:02:00,
2013-02-23 04:11:00,68.0,67.0,29.86,South,170,1.0,1.0,97,0.00,,,0.04,,2013-02-23 09:11:00,
2013-02-23 04:21:00,69.0,68.0,29.85,South,183,0.0,0.0,97,0.00,,,0.04,,2013-02-23 09:21:00,
2013-02-23 04:32:00,69.0,68.0,29.85,South,190,0.0,3.0,97,0.00,,,0.04,,2013-02-23 09:32:00,
2013-02-23 04:42:00,69.0,68.0,29.85,South,190,0.0,3.0,97,0.00,,,0.04,,2013-02-23 09:42:00,
2013-02-23 04:51:00,69.0,68.0,29.85,South,180,2.0,2.0,97,0.00,,,0.04,,2013-02-23 09:51:00,
2013-02-23 05:01:00,69.0,68.0,29.85,SSE,163,3.0,3.0,97,0.01,,,0.05,,2013-02-23 10:01:00,
2013-02-23 05:11:00,69.0,68.0,29.85,South,176,3.0,5.0,96,0.04,,,0.08,,2013-02-23 10:11:00,
2013-02-23 05:21:00,69.0,68.0,29.85,South,176,3.0,5.0,96,0.04,,,0.08,,2013-02-23 10:21:00,
2013-02-23 05:32:00,70.0,69.0,29.84,South,179,4.0,7.0,96,0.04,,,0.06,,2013-02-23 10:32:00,
2013-02-23 05:42:00,70.0,69.0,29.84,South,179,4.0,7.0,96,0.04,,,0.06,,2013-02-23 10:42:00,
2013-02-23 05:52:00,70.0,69.0,29.85,South,179,2.0,5.0,96,0.04,,,0.06,,2013-02-23 10:52:00,
2013-02-23 06:02:00,70.0,68.0,29.85,South,171,2.0,2.0,95,0.04,,,0.07,,2013-02-23 11:02:00,
2013-02-23 06:11:00,70.0,68.0,29.85,South,171,2.0,2.0,95,0.04,,,0.07,,2013-02-23 11:11:00,
2013-02-23 06:22:00,70.0,68.0,29.85,South,175,3.0,3.0,95,0.01,,,0.06,,2013-02-23 11:22:00,
2013-02-23 06:32:00,70.0,68.0,29.85,SSE,157,0.0,1.0,95,0.01,,,0.06,,2013-02-23 11:32:00,
2013-02-23 06:42:00,70.0,68.0,29.85,SSE,157,0.0,1.0,95,0.01,,,0.06,,2013-02-23 11:42:00,
2013-02-23 06:52:00,70.0,68.0,29.85,SSW,204,1.0,2.0,95,0.01,,,0.05,,2013-02-23 11:52:00,
2013-02-23 07:02:00,70.0,68.0,29.85,South,176,2.0,3.0,95,0.00,,,0.05,,2013-02-23 12:02:00,
2013-02-23 07:11:00,70.0,68.0,29.85,South,176,2.0,3.0,95,0.00,,,0.05,,2013-02-23 12:11:00,
2013-02-23 07:21:00,70.0,68.0,29.86,North,360,0.0,0.0,95,0.00,,,0.05,,2013-02-23 12:21:00,
2013-02-23 07:32:00,70.0,68.0,29.86,North,360,0.0,2.0,95,0.00,,,0.05,,2013-02-23 12:32:00,
2013-02-23 07:42:00,70.0,68.0,29.86,North,360,0.0,2.0,95,0.00,,,0.05,,2013-02-23 12:42:00,
2013-02-23 07:52:00,70.0,69.0,29.86,South,181,2.0,2.0,96,0.00,,,0.05,,2013-02-23 12:52:00,
2013-02-23 08:01:00,70.0,69.0,29.86,South,172,3.0,3.0,96,0.00,,,0.05,,2013-02-23 13:01:00,
2013-02-23 08:11:00,71.0,70.0,29.88,South,183,3.0,3.0,96,0.00,,,0.05,,2013-02-23 13:11:00,
2013-02-23 08:22:00,71.0,70.0,29.88,South,183,3.0,3.0,96,0.00,,,0.05,,2013-02-23 13:22:00,
2013-02-23 08:32:00,71.0,69.0,29.88,South,181,3.0,6.0,95,0.00,,,0.05,,2013-02-23 13:32:00,
2013-02-23 08:42:00,72.0,70.0,29.88,South,176,4.0,4.0,94,0.00,,,0.05,,2013-02-23 13:42:00,
2013-02-23 08:52:00,72.0,70.0,29.88,South,176,4.0,4.0,94,0.00,,,0.05,,2013-02-23 13:52:00,
2013-02-23 09:02:00,72.0,70.0,29.88,South,182,3.0,5.0,94,0.00,,,0.05,,2013-02-23 14:02:00,
2013-02-23 09:11:00,72.0,70.0,29.89,South,174,3.0,3.0,93,0.00,,,0.05,,2013-02-23 14:11:00,
2013-02-23 09:21:00,72.0,70.0,29.89,South,174,3.0,3.0,93,0.00,,,0.05,,2013-02-23 14:21:00,
2013-02-23 09:32:00,72.0,70.0,29.89,SSE,166,5.0,5.0,93,0.00,,,0.05,,2013-02-23 14:32:00,
2013-02-23 09:42:00,72.0,70.0,29.89,SSE,166,5.0,5.0,93,0.00,,,0.05,,2013-02-23 14:42:00,
2013-02-23 09:52:00,72.0,70.0,29.89,South,183,5.0,5.0,93,0.00,,,0.05,,2013-02-23 14:52:00,
2013-02-23 10:02:00,72.0,70.0,29.89,South,185,5.0,7.0,94,0.00,,,0.05,,2013-02-23 15:02:00,
2013-02-23 10:11:00,72.0,70.0,29.89,South,185,5.0,7.0,94,0.00,,,0.05,,2013-02-23 15:11:00,
2013-02-23 10:22:00,71.0,69.0,29.89,South,186,5.0,10.0,95,0.00,,,0.05,,2013-02-23 15:22:00,
2013-02-23 10:32:00,72.0,70.0,29.89,South,173,5.0,5.0,95,0.00,,,0.05,,2013-02-23 15:32:00,
2013-02-23 10:42:00,72.0,70.0,29.89,South,173,5.0,5.0,95,0.00,,,0.05,,2013-02-23 15:42:00,
2013-02-23 10:52:00,73.0,71.0,29.89,South,191,4.0,4.0,93,0.00,,,0.05,,2013-02-23 15:52:00,
2013-02-23 11:01:00,74.0,71.0,29.89,South,179,4.0,6.0,90,0.00,,,0.05,,2013-02-23 16:01:00,
2013-02-23 11:11:00,74.0,71.0,29.89,South,179,4.0,6.0,90,0.00,,,0.05,,2013-02-23 16:11:00,
2013-02-23 11:21:00,75.0,71.0,29.89,South,179,6.0,6.0,88,0.00,,,0.05,,2013-02-23 16:21:00,
2013-02-23 11:31:00,76.0,72.0,29.88,South,185,7.0,8.0,86,0.00,,,0.05,,2013-02-23 16:31:00,
2013-02-23 11:42:00,76.0,72.0,29.88,South,185,7.0,8.0,86,0.00,,,0.05,,2013-02-23 16:42:00,
2013-02-23 11:52:00,76.0,71.0,29.88,South,184,10.0,10.0,85,0.00,,,0.05,,2013-02-23 16:52:00,
2013-02-23 12:01:00,77.0,72.0,29.88,South,179,5.0,9.0,84,0.00,,,0.05,,2013-02-23 17:01:00,
2013-02-23 12:11:00,77.0,71.0,29.88,South,176,8.0,13.0,83,0.00,,,0.05,,2013-02-23 17:11:00,
2013-02-23 12:21:00,77.0,71.0,29.88,South,176,8.0,13.0,83,0.00,,,0.05,,2013-02-23 17:21:00,
2013-02-23 12:32:00,76.0,70.0,29.88,South,173,6.0,12.0,83,0.00,,,0.05,,2013-02-23 17:32:00,
2013-02-23 12:42:00,76.0,70.0,29.88,South,173,6.0,12.0,83,0.00,,,0.05,,2013-02-23 17:42:00,
2013-02-23 12:52:00,76.0,71.0,29.87,South,175,12.0,12.0,84,0.00,,,0.05,,2013-02-23 17:52:00,
2013-02-23 13:01:00,75.0,70.0,29.86,South,175,6.0,10.0,85,0.00,,,0.05,,2013-02-23 18:01:00,
2013-02-23 13:12:00,75.0,70.0,29.86,South,175,6.0,10.0,85,0.00,,,0.05,,2013-02-23 18:12:00,
2013-02-23 13:22:00,77.0,72.0,29.86,SSE,164,9.0,9.0,84,0.00,,,0.05,,2013-02-23 18:22:00,
2013-02-23 13:32:00,77.0,71.0,29.85,South,178,7.0,9.0,83,0.00,,,0.05,,2013-02-23 18:32:00,
2013-02-23 13:42:00,77.0,71.0,29.85,South,178,7.0,9.0,83,0.00,,,0.05,,2013-02-23 18:42:00,
2013-02-23 13:52:00,77.0,71.0,29.84,South,180,9.0,11.0,83,0.00,,,0.05,,2013-02-23 18:52:00,
2013-02-23 14:01:00,76.0,70.0,29.83,SSW,195,6.0,9.0,83,0.00,,,0.05,,2013-02-23 19:01:00,
2013-02-23 14:11:00,76.0,70.0,29.83,SSW,192,8.0,10.0,83,0.00,,,0.05,,2013-02-23 19:11:00,
2013-02-23 14:21:00,76.0,70.0,29.83,SSW,192,8.0,10.0,83,0.00,,,0.05,,2013-02-23 19:21:00,
2013-02-23 14:32:00,77.0,71.0,29.83,South,177,8.0,8.0,83,0.00,,,0.05,,2013-02-23 19:32:00,
2013-02-23 14:41:00,77.0,71.0,29.83,South,177,8.0,8.0,83,0.00,,,0.05,,2013-02-23 19:41:00,
2013-02-23 14:52:00,76.0,70.0,29.82,South,181,5.0,8.0,83,0.00,,,0.05,,2013-02-23 19:52:00,
2013-02-23 15:01:00,77.0,71.0,29.82,South,186,8.0,8.0,82,0.00,,,0.05,,2013-02-23 20:01:00,
2013-02-23 15:11:00,77.0,71.0,29.82,South,186,8.0,8.0,82,0.00,,,0.05,,2013-02-23 20:11:00,
2013-02-23 15:21:00,77.0,71.0,29.82,South,179,6.0,6.0,82,0.00,,,0.05,,2013-02-23 20:21:00,
2013-02-23 15:32:00,77.0,71.0,29.81,South,172,8.0,8.0,82,0.00,,,0.05,,2013-02-23 20:32:00,
2013-02-23 15:42:00,77.0,71.0,29.81,South,172,8.0,8.0,82,0.00,,,0.05,,2013-02-23 20:42:00,
2013-02-23 15:53:00,77.0,71.0,29.80,South,184,7.0,7.0,82,0.00,,,0.05,,2013-02-23 20:53:00,
2013-02-23 16:01:00,76.0,70.0,29.80,South,169,9.0,9.0,83,0.00,,,0.05,,2013-02-23 21:01:00,
2013-02-23 16:11:00,75.0,70.0,29.80,SSW,200,4.0,7.0,85,0.00,,,0.05,,2013-02-23 21:11:00,
2013-02-23 16:22:00,75.0,70.0,29.80,SSW,200,4.0,7.0,85,0.00,,,0.05,,2013-02-23 21:22:00,
2013-02-23 16:32:00,75.0,70.0,29.80,SSW,201,4.0,5.0,84,0.00,,,0.05,,2013-02-23 21:32:00,
2013-02-23 16:42:00,75.0,70.0,29.80,SSW,201,4.0,5.0,84,0.00,,,0.05,,2013-02-23 21:42:00,
2013-02-23 16:52:00,76.0,71.0,29.80,South,184,5.0,5.0,84,0.00,,,0.05,,2013-02-23 21:52:00,
2013-02-23 17:01:00,75.0,70.0,29.80,South,187,5.0,5.0,85,0.00,,,0.05,,2013-02-23 22:01:00,
2013-02-23 17:11:00,74.0,70.0,29.80,South,182,6.0,6.0,88,0.01,,,0.06,,2013-02-23 22:11:00,
2013-02-23 17:22:00,74.0,70.0,29.80,South,182,6.0,6.0,88,0.01,,,0.06,,2013-02-23 22:22:00,
2013-02-23 17:32:00,74.0,71.0,29.80,South,186,5.0,5.0,89,0.01,,,0.06,,2013-02-23 22:32:00,
2013-02-23 17:42:00,74.0,71.0,29.80,South,186,5.0,5.0,89,0.01,,,0.06,,2013-02-23 22:42:00,
2013-02-23 17:52:00,74.0,71.0,29.80,South,182,5.0,6.0,89,0.01,,,0.06,,2013-02-23 22:52:00,
2013-02-23 18:01:00,74.0,71.0,29.80,South,178,3.0,3.0,89,0.01,,,0.06,,2013-02-23 23:01:00,
2013-02-23 18:11:00,73.0,70.0,29.81,South,181,7.0,7.0,89,0.00,,,0.06,,2013-02-23 23:11:00,
2013-02-23 18:21:00,73.0,70.0,29.81,South,181,7.0,7.0,89,0.00,,,0.06,,2013-02-23 23:21:00,
2013-02-23 18:32:00,72.0,69.0,29.82,South,182,5.0,5.0,91,0.00,,,0.06,,2013-02-23 23:32:00,
2013-02-23 18:42:00,72.0,69.0,29.82,South,182,5.0,5.0,91,0.00,,,0.06,,2013-02-23 23:42:00,
2013-02-23 18:52:00,72.0,70.0,29.82,South,185,5.0,5.0,92,0.00,,,0.06,,2013-02-23 23:52:00,
2013-02-23 19:01:00,71.0,69.0,29.82,South,174,4.0,5.0,93,0.00,,,0.06,,2013-02-24 00:01:00,
2013-02-23 19:11:00,71.0,69.0,29.83,South,185,3.0,4.0,94,0.00,,,0.06,,2013-02-24 00:11:00,
2013-02-23 19:22:00,71.0,69.0,29.83,South,185,3.0,4.0,94,0.00,,,0.06,,2013-02-24 00:22:00,
2013-02-23 19:32:00,71.0,69.0,29.83,South,176,5.0,5.0,94,0.00,,,0.06,,2013-02-24 00:32:00,
2013-02-23 19:42:00,71.0,69.0,29.83,South,176,5.0,5.0,94,0.00,,,0.06,,2013-02-24 00:42:00,
2013-02-23 19:52:00,71.0,69.0,29.83,South,183,4.0,5.0,95,0.00,,,0.06,,2013-02-24 00:52:00,
2013-02-23 20:01:00,71.0,69.0,29.83,South,184,1.0,4.0,95,0.00,,,0.06,,2013-02-24 01:01:00,
2013-02-23 20:11:00,71.0,69.0,29.83,South,184,1.0,4.0,95,0.00,,,0.06,,2013-02-24 01:11:00,
2013-02-23 20:22:00,70.0,68.0,29.82,South,174,5.0,5.0,95,0.00,,,0.06,,2013-02-24 01:22:00,
2013-02-23 20:31:00,70.0,69.0,29.82,North,360,0.0,5.0,96,0.00,,,0.06,,2013-02-24 01:31:00,
2013-02-23 20:42:00,70.0,69.0,29.82,North,360,0.0,5.0,96,0.00,,,0.06,,2013-02-24 01:42:00,
2013-02-23 20:52:00,70.0,69.0,29.83,SSW,203,3.0,4.0,96,0.00,,,0.06,,2013-02-24 01:52:00,
2013-02-23 21:01:00,71.0,70.0,29.83,South,181,3.0,4.0,96,0.00,,,0.06,,2013-02-24 02:01:00,
2013-02-23 21:11:00,71.0,70.0,29.83,South,181,3.0,4.0,96,0.00,,,0.06,,2013-02-24 02:11:00,
2013-02-23 21:22:00,70.0,69.0,29.83,South,175,5.0,5.0,96,0.00,,,0.06,,2013-02-24 02:22:00,
2013-02-23 21:32:00,70.0,69.0,29.83,South,179,4.0,4.0,97,0.00,,,0.06,,2013-02-24 02:32:00,
2013-02-23 21:42:00,70.0,69.0,29.83,South,179,4.0,4.0,97,0.00,,,0.06,,2013-02-24 02:42:00,
2013-02-23 21:52:00,70.0,69.0,29.83,South,174,2.0,5.0,97,0.00,,,0.06,,2013-02-24 02:52:00,
2013-02-23 22:02:00,70.0,69.0,29.83,South,179,5.0,5.0,97,0.00,,,0.06,,2013-02-24 03:02:00,
2013-02-23 22:11:00,70.0,69.0,29.84,South,187,3.0,5.0,97,0.00,,,0.06,,2013-02-24 03:11:00,
2013-02-23 22:22:00,70.0,69.0,29.84,South,187,3.0,5.0,97,0.00,,,0.06,,2013-02-24 03:22:00,
2013-02-23 22:32:00,70.0,69.0,29.84,South,180,1.0,3.0,97,0.00,,,0.06,,2013-02-24 03:32:00,
2013-02-23 22:42:00,70.0,69.0,29.84,South,180,1.0,3.0,97,0.00,,,0.06,,2013-02-24 03:42:00,
2013-02-23 22:52:00,69.0,68.0,29.84,SSW,192,3.0,4.0,98,0.00,,,0.06,,2013-02-24 03:52:00,
2013-02-23 23:01:00,69.0,68.0,29.85,South,186,3.0,3.0,98,0.00,,,0.06,,2013-02-24 04:01:00,
2013-02-23 23:11:00,69.0,68.0,29.85,South,186,3.0,3.0,98,0.00,,,0.06,,2013-02-24 04:11:00,
2013-02-23 23:21:00,69.0,68.0,29.85,South,180,2.0,3.0,98,0.00,,,0.06,,2013-02-24 04:21:00,
2013-02-23 23:32:00,69.0,68.0,29.84,North,360,0.0,4.0,98,0.00,,,0.06,,2013-02-24 04:32:00,
2013-02-23 23:42:00,69.0,68.0,29.84,North,360,0.0,4.0,98,0.00,,,0.06,,2013-02-24 04:42:00,
2013-02-23 23:52:00,69.0,68.0,29.83,SSW,196,2.0,4.0,98,0.00,,,0.06,,2013-02-24 04:52:00,